Tracking 25693 objects as of 1-Jul-2022
HD Live streaming from Space Station
objects crossing your sky now

STARLINK-3266

Track STARLINK-3266 now!
10-day predictions
STARLINK-3266 is classified as:


NORAD ID: 50195
Int'l Code: 2021-125AR
Perigee: 545.1 km
Apogee: 548.7 km
Inclination: 53.2 °
Period: 95.4 minutes
Semi major axis: 6917 km
RCS: Unknown
Launch date: December 18, 2021
Source: United States (US)
Launch site: AIR FORCE WESTERN TEST RANGE (AFWTR)
aabbcc
Your satellite tracking list
Your tracking list is empty




NASA's NSSDC Master Catalog

Two Line Element Set (TLE):
1 50195U 21125AR  22182.38426715  .00002288  00000-0  16193-3 0  9995
2 50195  53.2172 167.4028 0002603  62.0048 298.1207 15.08822129 33330
Source of the keplerian elements: AFSPC